Weather History for Fort Huachuca, AZ

Change the Weather History Date:

Thursday, March 7, 2013

  Actual Average (KFHU) Record (KFHU)
Temperature  
Mean Temperature 58 °F -  
Max Temperature 69 °F 65 °F 81 °F (1989)
Min Temperature 46 °F 42 °F 29 °F (1984)
Degree Days  
Heating Degree Days 8    
Growing Degree Days 8 (Base 50)    
Moisture  
Dew Point 20 °F    
Average Humidity 25    
Maximum Humidity 42    
Minimum Humidity 12    
Precipitation  
Precipitation 0.00 in - - ()
Sea Level Pressure  
Sea Level Pressure 29.84 in    
Wind  
Wind Speed 11 mph (SW)    
Max Wind Speed 21 mph    
Max Gust Speed 29 mph    
Averages and records for this station are not official NWS values.
T = Trace of Precipitation, MM = Missing Value Source: NWS Daily Summary

Daily Weather History Graph

Daily Weather History Graph

Search for Another Location

Airport:

Trip Planner

Search our weather history database for the weather conditions in past years. The results will help you decide how hot, cold, wet, or windy it might be!

Date:

Astronomy

Mar. 07, 2013 Rise Set
Actual Time 6:41 AM MST 6:24 PM MST
Civil Twilight 6:16 AM MST 6:48 PM MST
Nautical Twilight 5:48 AM MST 7:16 PM MST
Astronomical Twilight 5:20 AM MST 7:45 PM MST
Moon 3:30 AM MST (3/7) 2:28 PM MST (3/7)
Length of Visible Light 12h 31m
Length of Day
11h 43m
Waning Crescent, 19% of the Moon is Illuminated
Mar 7
Waning Crescent
Mar 11
New
Mar 19
First Quarter
Mar 27
Full
Apr 2
Last Quarter

Hourly Weather History & Observations

Time (MST) Temp. Windchill Dew Point Humidity Pressure Visibility Wind Dir Wind Speed Gust Speed Precip Events Conditions
12:56 AM 55.9 °F - 25.0 °F 30% 29.83 in - West 8.1 mph - N/A   Clear
2:56 AM 50.0 °F - 25.0 °F 38% 29.81 in - West 8.1 mph - N/A   Clear
3:56 AM 46.9 °F - 24.1 °F 41% 29.81 in - West 11.5 mph - N/A   Clear
4:56 AM 48.9 °F - 24.1 °F 38% 29.82 in - West 8.1 mph - N/A   Clear
5:56 AM 46.0 °F 41.0 °F 24.1 °F 42% 29.85 in - West 10.4 mph - N/A   Clear
6:56 AM 50.0 °F - 24.1 °F 36% 29.87 in - South 3.5 mph - N/A   Clear
7:56 AM 52.0 °F - 25.0 °F 35% 29.88 in - NW 3.5 mph - N/A   Clear
8:56 AM 61.0 °F - 21.0 °F 21% 29.88 in - SSW 17.3 mph 24.2 mph N/A   Clear
9:56 AM 63.0 °F - 21.0 °F 20% 29.88 in - SSW 16.1 mph 23.0 mph N/A   Clear
10:56 AM 64.9 °F - 14.0 °F 14% 29.88 in - SSW 17.3 mph 23.0 mph N/A   Clear
11:56 AM 66.9 °F - 21.0 °F 17% 29.86 in - SW 19.6 mph 27.6 mph N/A   Clear
12:56 PM 68.0 °F - 15.1 °F 13% 29.83 in - WSW 17.3 mph 25.3 mph N/A   Clear
1:56 PM 69.1 °F - 14.0 °F 12% 29.81 in - WSW 18.4 mph 25.3 mph N/A   Clear
2:56 PM 68.0 °F - 18.0 °F 15% 29.81 in - SW 20.7 mph 28.8 mph N/A   Clear
3:56 PM 66.9 °F - 15.1 °F 14% 29.82 in - WSW 18.4 mph 25.3 mph N/A   Clear
4:56 PM 64.9 °F - 15.1 °F 15% 29.82 in - SW 16.1 mph - N/A   Clear
5:56 PM 63.0 °F - 17.1 °F 17% 29.84 in - WSW 11.5 mph - N/A   Clear
6:56 PM 57.0 °F - 18.0 °F 22% 29.86 in - SW 6.9 mph - N/A   Clear
7:56 PM 55.9 °F - 19.0 °F 24% 29.87 in - SSW 9.2 mph - N/A   Clear
8:56 PM 54.0 °F - 19.0 °F 25% 29.86 in - South 5.8 mph - N/A   Clear
9:56 PM 48.9 °F - 19.9 °F 32% 29.86 in - WSW 3.5 mph - N/A   Clear
10:56 PM 55.0 °F - 21.0 °F 27% 29.83 in - South 8.1 mph - N/A   Clear
11:56 PM 52.0 °F - 21.9 °F 31% 29.83 in - SW 8.1 mph - N/A   Clear